TimePDT,TemperatureF,Dew PointF,Humidity,Sea Level PressureIn,VisibilityMPH,Wind Direction,Wind SpeedMPH,Gust SpeedMPH,PrecipitationIn,Events,Conditions,WindDirDegrees,DateUTC
12:53 AM,75.0,52.0,44,29.83,10.0,West,17.3,26.5,N/A,,Overcast,280,2013-09-03 07:53:00
1:53 AM,73.0,53.1,49,29.85,10.0,WNW,5.8,-,N/A,,Mostly Cloudy,300,2013-09-03 08:53:00
2:53 AM,72.0,54.0,53,29.86,10.0,NW,4.6,-,N/A,,Scattered Clouds,310,2013-09-03 09:53:00
3:53 AM,71.1,55.0,57,29.86,10.0,WNW,8.1,-,N/A,,Scattered Clouds,300,2013-09-03 10:53:00
4:53 AM,70.0,55.0,59,29.86,10.0,NW,9.2,-,N/A,,Mostly Cloudy,320,2013-09-03 11:53:00
5:53 AM,69.1,55.0,61,29.86,10.0,NNW,9.2,-,N/A,,Partly Cloudy,330,2013-09-03 12:53:00
6:53 AM,68.0,54.0,61,29.88,10.0,NNW,11.5,-,N/A,,Clear,330,2013-09-03 13:53:00
7:53 AM,70.0,55.0,59,29.90,10.0,NW,11.5,-,N/A,,Clear,320,2013-09-03 14:53:00
8:53 AM,73.0,55.0,53,29.91,10.0,NNW,6.9,-,N/A,,Clear,330,2013-09-03 15:53:00
9:53 AM,75.9,55.0,48,29.90,10.0,NW,9.2,-,N/A,,Clear,320,2013-09-03 16:53:00
10:53 AM,78.1,55.0,45,29.90,10.0,NNW,16.1,-,N/A,,Clear,330,2013-09-03 17:53:00
11:53 AM,82.0,54.0,38,29.89,10.0,NNW,15.0,-,N/A,,Clear,330,2013-09-03 18:53:00
12:53 PM,84.0,55.9,38,29.88,10.0,NNW,19.6,-,N/A,,Clear,330,2013-09-03 19:53:00
1:53 PM,84.0,55.9,38,29.88,10.0,NNW,18.4,25.3,N/A,,Clear,330,2013-09-03 20:53:00
2:53 PM,86.0,53.1,32,29.88,10.0,NW,18.4,25.3,N/A,,Clear,320,2013-09-03 21:53:00
3:53 PM,86.0,52.0,31,29.86,10.0,NW,16.1,26.5,N/A,,Clear,320,2013-09-03 22:53:00
4:53 PM,84.9,53.1,33,29.85,10.0,NW,17.3,21.9,N/A,,Clear,320,2013-09-03 23:53:00
5:53 PM,84.0,52.0,33,29.85,10.0,WNW,17.3,29.9,N/A,,Clear,300,2013-09-04 00:53:00
6:53 PM,79.0,53.1,40,29.88,10.0,WNW,16.1,25.3,N/A,,Clear,290,2013-09-04 01:53:00
7:53 PM,77.0,54.0,45,29.90,10.0,WNW,19.6,27.6,N/A,,Clear,300,2013-09-04 02:53:00
8:53 PM,75.9,53.1,45,29.92,10.0,WNW,15.0,21.9,N/A,,Clear,300,2013-09-04 03:53:00
9:53 PM,75.0,53.1,46,29.92,10.0,NW,11.5,20.7,N/A,,Clear,310,2013-09-04 04:53:00
10:53 PM,73.9,53.1,48,29.92,10.0,WNW,17.3,-,N/A,,Clear,290,2013-09-04 05:53:00
11:53 PM,73.9,52.0,46,29.92,10.0,WNW,12.7,24.2,N/A,,Clear,290,2013-09-04 06:53:00